Weather in Atabayevo

Russia / Republic of Tatarstan     55°17′17″N   49°21′18″E
temp.,
°C
wind,
m/s
gust,
m/s
humid.,
%
clouds,
%
prec.,
mm/h
press.,
hPa
HPBL,
m
7 march, sun
sun700:00−15w33930 0.0 101222
03:00−16w22950 0.0 101220
06:00−17w239620 0.0 101120
09:00−14wsw239412 0.0 101192
12:00−10ssw469137 0.0 1010284
15:00−9ssw598943 0.0 1007395
18:00−8s7138790 0.0 1005399
21:00−7s9159495 0.8 1002707
8 march, mon
mon800:00−6s91594100 0.9 997676
03:00−5ssw81494100 1.9 994710
06:00−3sw91592100 1.3 991830
09:00−7wsw11187997 1.3 992745
12:00−5wsw1015781 0.0 9961045
15:00−5wsw813829 0.0 999678
18:00−9sw578734 0.0 1001104
21:00−10sw238864 0.0 100222
9 march, tue
tue900:00−10s2296100 0.3 100133
03:00−9wsw2395100 1.3 100241
06:00−9nw479391 0.3 1004216
09:00−13wnw479354 0.3 1006201
12:00−10wnw469162 0.0 1008314
15:00−10wnw468969 0.0 1009296
18:00−15wnw459324 0.0 101063
21:00−14nnw359556 0.1 101287
10 march, wed
wed1000:00−18nnw449491 0.0 101249
03:00−21nw459791 0.0 101359
06:00−22nnw479786 0.0 1015121
09:00−20nnw589488 0.1 1016301
12:00−19nnw579298 0.0 1018423
15:00−18nnw578899 0.0 1019599
18:00−22nw4794100 0.0 1021101
21:00−25nw449252 0.0 102234
11 march, thu
thu1100:00−26wnw34950 0.0 102227
03:00−25wnw44960 0.0 102370
06:00−25w479741 0.0 1023118
09:00−21w699453 0.0 1022297
12:00−15wnw61092100 0.1 1021564
15:00−13wnw61087100 0.3 1021642
18:00−13wnw489391 0.1 1022146
21:00−12wnw6119290 0.1 1024244